| time (UTC) | temp F | wind direction | speed knots | gust knots | rain 1hr in | rain 24hr in | rain mn in | humidity % | barometer mb |
| 20260509120556 | 47 | 248 | 2.6 | 6.1 | 0.00 | 0.00 | 0.00 | 63 | 1002.4 |
| 20260509115516 | 47 | 248 | 2.6 | 3.5 | 0.00 | 0.00 | 0.00 | 62 | 1002.3 |
| 20260509114516 | 48 | 248 | 1.7 | 2.6 | 0.00 | 0.00 | 0.00 | 60 | 1002.2 |
| 20260509113535 | 50 | 248 | 1.7 | 2.6 | 0.00 | 0.00 | 0.00 | 53 | 1002.2 |
| 20260509112515 | 51 | 248 | 1.7 | 2.6 | 0.00 | 0.00 | 0.00 | 50 | 1002.2 |
| 20260509111516 | 51 | 225 | 2.6 | 5.2 | 0.00 | 0.00 | 0.00 | 49 | 1002.3 |
| 20260509110515 | 50 | 248 | 1.7 | 3.5 | 0.00 | 0.00 | 0.00 | 49 | 1002.3 |
| 20260509105515 | 50 | 270 | 1.7 | 3.5 | 0.00 | 0.00 | 0.00 | 50 | 1002.4 |
| 20260509104515 | 50 | 248 | 1.7 | 2.6 | 0.00 | 0.00 | 0.00 | 50 | 1002.5 |
| 20260509103515 | 50 | 270 | 1.7 | 3.5 | 0.00 | 0.00 | 0.00 | 51 | 1002.7 |
| 20260509102535 | 50 | 248 | 1.7 | 3.5 | 0.00 | 0.00 | 0.00 | 51 | 1002.6 |
| 20260509101515 | 50 | 248 | 1.7 | 3.5 | 0.00 | 0.00 | 0.00 | 52 | 1002.5 |
| 20260509100515 | 50 | 248 | 2.6 | 5.2 | 0.00 | 0.00 | 0.00 | 52 | 1002.5 |
| 20260509095515 | 50 | 270 | 2.6 | 5.2 | 0.00 | 0.00 | 0.00 | 53 | 1002.5 |
| 20260509094516 | 50 | 270 | 2.6 | 6.1 | 0.00 | 0.00 | 0.00 | 53 | 1002.7 |
| 20260509093515 | 50 | 270 | 2.6 | 6.1 | 0.00 | 0.00 | 0.00 | 52 | 1002.6 |
| 20260509092515 | 50 | 270 | 2.6 | 5.2 | 0.00 | 0.00 | 0.00 | 54 | 1002.5 |
| 20260509091515 | 50 | 270 | 2.6 | 5.2 | 0.00 | 0.00 | 0.00 | 54 | 1002.6 |
| 20260509090515 | 51 | 270 | 2.6 | 5.2 | 0.00 | 0.00 | 0.00 | 54 | 1002.4 |
| 20260509085535 | 50 | 270 | 2.6 | 6.1 | 0.00 | 0.00 | 0.00 | 54 | 1002.6 |
| 20260509084515 | 51 | 270 | 3.5 | 6.1 | 0.00 | 0.00 | 0.00 | 54 | 1002.7 |
| 20260509083515 | 51 | 270 | 2.6 | 6.1 | 0.00 | 0.00 | 0.00 | 53 | 1002.5 |
| 20260509082515 | 52 | 293 | 2.6 | 5.2 | 0.00 | 0.00 | 0.00 | 50 | 1002.5 |
| 20260509081535 | 53 | 293 | 2.6 | 6.1 | 0.00 | 0.00 | 0.00 | 49 | 1002.5 |
| 20260509080515 | 54 | 293 | 2.6 | 5.2 | 0.00 | 0.00 | 0.00 | 49 | 1002.5 |
| 20260509075515 | 54 | 293 | 3.5 | 7.0 | 0.00 | 0.00 | 0.00 | 47 | 1002.4 |
| 20260509074515 | 55 | 270 | 2.6 | 7.0 | 0.00 | 0.00 | 0.00 | 46 | 1002.5 |
| 20260509073535 | 55 | 293 | 3.5 | 7.0 | 0.00 | 0.00 | 0.00 | 46 | 1002.7 |
| 20260509072517 | 56 | 293 | 4.3 | 8.7 | 0.00 | 0.00 | 0.00 | 46 | 1002.7 |
| 20260509071517 | 56 | 270 | 4.3 | 7.8 | 0.00 | 0.00 | 0.00 | 46 | 1002.7 |
| 20260509070517 | 56 | 293 | 4.3 | 7.8 | 0.00 | 0.00 | 0.00 | 46 | 1002.8 |
| 20260509065517 | 56 | 270 | 5.2 | 8.7 | 0.00 | 0.00 | 0.00 | 46 | 1002.7 |
| 20260509064517 | 57 | 270 | 5.2 | 9.6 | 0.00 | 0.00 | 0.00 | 46 | 1002.7 |
| 20260509063537 | 57 | 293 | 4.3 | 8.7 | 0.00 | 0.00 | 0.00 | 45 | 1002.7 |
| 20260509062517 | 57 | 270 | 3.5 | 7.8 | 0.00 | 0.00 | 0.00 | 45 | 1002.7 |
| 20260509061517 | 57 | 270 | 4.3 | 8.7 | 0.00 | 0.00 | 0.00 | 45 | 1002.6 |
| 20260509060537 | 58 | 270 | 4.3 | 9.6 | 0.00 | 0.00 | 0.00 | 45 | 1002.7 |
| 20260509055517 | 57 | 270 | 3.5 | 7.0 | 0.00 | 0.00 | 0.00 | 44 | 1002.6 |
| 20260509054517 | 58 | 270 | 2.6 | 6.1 | 0.00 | 0.00 | 0.00 | 44 | 1002.6 |
| 20260509053517 | 58 | 248 | 3.5 | 7.0 | 0.00 | 0.00 | 0.00 | 43 | 1002.6 |
| 20260509052517 | 58 | 248 | 3.5 | 6.1 | 0.00 | 0.00 | 0.00 | 43 | 1002.6 |
| 20260509051517 | 58 | 248 | 3.5 | 7.0 | 0.00 | 0.00 | 0.00 | 42 | 1002.7 |
| 20260509050517 | 58 | 248 | 2.6 | 3.5 | 0.00 | 0.00 | 0.00 | 42 | 1002.6 |
| 20260509045516 | 59 | 248 | 3.5 | 7.0 | 0.00 | 0.00 | 0.00 | 41 | 1002.5 |
| 20260509044515 | 59 | 248 | 3.5 | 5.2 | 0.00 | 0.00 | 0.00 | 41 | 1002.7 |
| 20260509043516 | 59 | 225 | 2.6 | 5.2 | 0.00 | 0.00 | 0.00 | 40 | 1002.7 |
| 20260509042516 | 59 | 248 | 3.5 | 7.0 | 0.00 | 0.00 | 0.00 | 40 | 1002.6 |
| 20260509041516 | 59 | 225 | 2.6 | 4.3 | 0.00 | 0.00 | 0.00 | 41 | 1002.5 |
| 20260509040536 | 59 | 225 | 2.6 | 4.3 | 0.00 | 0.00 | 0.00 | 39 | 1002.7 |
| 20260509035516 | 60 | 225 | 2.6 | 5.2 | 0.00 | 0.00 | 0.00 | 38 | 1002.8 |
| 20260509034515 | 60 | 225 | 1.7 | 4.3 | 0.00 | 0.00 | 0.00 | 39 | 1002.9 |
| 20260509033536 | 60 | 225 | 1.7 | 4.3 | 0.00 | 0.00 | 0.00 | 39 | 1002.9 |
| 20260509032516 | 60 | 225 | 0.9 | 2.6 | 0.00 | 0.00 | 0.00 | 38 | 1002.9 |
| 20260509031515 | 60 | 225 | 0.9 | 2.6 | 0.00 | 0.00 | 0.00 | 38 | 1003.0 |
| 20260509030516 | 60 | 225 | 0.9 | 2.6 | 0.00 | 0.00 | 0.00 | 37 | 1002.9 |
| 20260509025515 | 61 | 203 | 1.7 | 4.3 | 0.00 | 0.00 | 0.00 | 37 | 1003.1 |
| 20260509024535 | 62 | 225 | 1.7 | 3.5 | 0.00 | 0.00 | 0.00 | 35 | 1003.2 |
| 20260509023557 | 61 | 225 | 0.9 | 3.5 | 0.00 | 0.00 | 0.00 | 35 | 1003.1 |
| 20260509022515 | 61 | 0.0 | 2.6 | 0.00 | 0.00 | 0.00 | 34 | 1003.0 | |
| 20260509021515 | 61 | 0.0 | 2.6 | 0.00 | 0.00 | 0.00 | 33 | 1002.8 | |
| 20260509020516 | 61 | 0.0 | 0.9 | 0.00 | 0.00 | 0.00 | 34 | 1002.9 | |
| 20260509015536 | 62 | 225 | 0.9 | 1.7 | 0.00 | 0.00 | 0.00 | 34 | 1002.8 |
| 20260509014516 | 62 | 0.0 | 0.9 | 0.00 | 0.00 | 0.00 | 33 | 1002.7 | |
| 20260509013516 | 63 | 0.0 | 0.9 | 0.00 | 0.00 | 0.00 | 32 | 1002.6 | |
| 20260509012515 | 63 | 0.0 | 1.7 | 0.00 | 0.00 | 0.00 | 32 | 1002.8 | |
| 20260509011515 | 64 | 225 | 1.7 | 2.6 | 0.00 | 0.00 | 0.00 | 32 | 1002.7 |
| 20260509010515 | 65 | 225 | 1.7 | 2.6 | 0.00 | 0.00 | 0.00 | 31 | 1002.8 |
| 20260509005515 | 65 | 225 | 1.7 | 3.5 | 0.00 | 0.00 | 0.00 | 30 | 1002.9 |
| 20260509004517 | 66 | 225 | 0.9 | 1.7 | 0.00 | 0.00 | 0.00 | 30 | 1002.7 |
| 20260509003516 | 67 | 225 | 2.6 | 4.3 | 0.00 | 0.00 | 0.00 | 30 | 1002.9 |
| 20260509002515 | 68 | 248 | 3.5 | 7.0 | 0.00 | 0.00 | 0.00 | 26 | 1003.0 |
| 20260509001515 | 68 | 225 | 3.5 | 7.0 | 0.00 | 0.00 | 0.00 | 27 | 1003.0 |
| 20260509000516 | 68 | 225 | 4.3 | 9.6 | 0.00 | 0.00 | 0.00 | 26 | 1003.1 |
| 20260508235515 | 68 | 225 | 2.6 | 6.1 | 0.00 | 0.00 | 0.00 | 29 | 1003.0 |
| 20260508234535 | 68 | 248 | 3.5 | 9.6 | 0.00 | 0.00 | 0.00 | 28 | 1003.2 |
| 20260508233535 | 68 | 248 | 5.2 | 9.6 | 0.00 | 0.00 | 0.00 | 27 | 1003.2 |
| 20260508232515 | 67 | 248 | 4.3 | 9.6 | 0.00 | 0.00 | 0.00 | 28 | 1003.3 |
| 20260508231515 | 68 | 225 | 4.3 | 11.3 | 0.00 | 0.00 | 0.00 | 27 | 1003.4 |
| 20260508230515 | 68 | 248 | 6.1 | 13.0 | 0.00 | 0.00 | 0.00 | 26 | 1003.6 |
| 20260508225515 | 68 | 248 | 7.8 | 14.8 | 0.00 | 0.00 | 0.00 | 26 | 1003.6 |
| 20260508224515 | 68 | 248 | 7.0 | 11.3 | 0.00 | 0.00 | 0.00 | 25 | 1003.7 |
| 20260508223515 | 69 | 225 | 7.8 | 11.3 | 0.00 | 0.00 | 0.00 | 25 | 1003.7 |
| 20260508222515 | 69 | 270 | 7.8 | 13.0 | 0.00 | 0.00 | 0.00 | 24 | 1003.7 |
| 20260508221517 | 69 | 270 | 6.1 | 13.0 | 0.00 | 0.00 | 0.00 | 26 | 1003.9 |
| 20260508220517 | 69 | 293 | 6.1 | 13.0 | 0.00 | 0.00 | 0.00 | 25 | 1003.9 |
| 20260508215517 | 69 | 270 | 7.8 | 20.0 | 0.00 | 0.00 | 0.00 | 25 | 1004.1 |
| 20260508214539 | 69 | 248 | 7.8 | 18.2 | 0.00 | 0.00 | 0.00 | 24 | 1004.1 |
| 20260508213517 | 69 | 248 | 7.8 | 16.5 | 0.00 | 0.00 | 0.00 | 27 | 1004.3 |
| 20260508212517 | 69 | 270 | 7.0 | 12.2 | 0.00 | 0.00 | 0.00 | 24 | 1004.5 |
| 20260508211517 | 69 | 270 | 5.2 | 11.3 | 0.00 | 0.00 | 0.00 | 24 | 1004.5 |
| 20260508210517 | 69 | 248 | 6.1 | 10.4 | 0.00 | 0.00 | 0.00 | 29 | 1004.8 |
| 20260508205517 | 69 | 225 | 6.1 | 11.3 | 0.00 | 0.00 | 0.00 | 30 | 1005.0 |
| 20260508204517 | 68 | 225 | 7.8 | 13.9 | 0.00 | 0.00 | 0.00 | 26 | 1004.9 |
| 20260508203519 | 68 | 225 | 6.1 | 13.0 | 0.00 | 0.00 | 0.00 | 27 | 1005.4 |
| 20260508202517 | 67 | 248 | 6.1 | 13.0 | 0.00 | 0.00 | 0.00 | 25 | 1005.4 |
| 20260508201517 | 68 | 225 | 7.8 | 18.2 | 0.00 | 0.00 | 0.00 | 26 | 1005.6 |
| 20260508200517 | 67 | 225 | 5.2 | 12.2 | 0.00 | 0.00 | 0.00 | 26 | 1005.7 |
| 20260508195517 | 67 | 225 | 9.6 | 16.5 | 0.00 | 0.00 | 0.00 | 26 | 1006.1 |
| 20260508194517 | 67 | 248 | 7.8 | 15.6 | 0.00 | 0.00 | 0.00 | 29 | 1006.2 |
| 20260508193517 | 65 | 225 | 5.2 | 13.9 | 0.00 | 0.00 | 0.00 | 28 | 1006.3 |
| 20260508192519 | 65 | 225 | 6.1 | 13.0 | 0.00 | 0.00 | 0.00 | 30 | 1006.4 |
| 20260508191517 | 66 | 225 | 7.0 | 13.0 | 0.00 | 0.00 | 0.00 | 27 | 1006.6 |
| 20260508190517 | 66 | 225 | 7.0 | 17.4 | 0.00 | 0.00 | 0.00 | 28 | 1006.7 |
| 20260508185517 | 66 | 293 | 4.3 | 8.7 | 0.00 | 0.00 | 0.00 | 31 | 1007.0 |
| 20260508184517 | 65 | 248 | 7.0 | 15.6 | 0.00 | 0.00 | 0.00 | 27 | 1006.9 |
| 20260508183517 | 65 | 225 | 3.5 | 7.8 | 0.00 | 0.00 | 0.00 | 27 | 1007.0 |
| 20260508182517 | 65 | 225 | 7.0 | 14.8 | 0.00 | 0.00 | 0.00 | 30 | 1007.2 |
| 20260508181517 | 65 | 225 | 2.6 | 7.0 | 0.00 | 0.00 | 0.00 | 33 | 1007.3 |
| 20260508180517 | 65 | 225 | 6.1 | 14.8 | 0.00 | 0.00 | 0.00 | 32 | 1007.5 |
| 20260508175517 | 64 | 248 | 6.1 | 10.4 | 0.00 | 0.00 | 0.00 | 27 | 1007.4 |
| 20260508174517 | 64 | 225 | 5.2 | 12.2 | 0.00 | 0.00 | 0.00 | 31 | 1007.7 |
| 20260508173518 | 64 | 225 | 6.1 | 15.6 | 0.00 | 0.00 | 0.00 | 33 | 1007.8 |
| 20260508172517 | 63 | 225 | 7.8 | 12.2 | 0.00 | 0.00 | 0.00 | 30 | 1008.2 |
| 20260508171517 | 64 | 270 | 4.3 | 8.7 | 0.00 | 0.00 | 0.00 | 33 | 1008.3 |
| 20260508170538 | 63 | 225 | 6.1 | 10.4 | 0.00 | 0.00 | 0.00 | 29 | 1008.4 |
| 20260508165517 | 63 | 225 | 5.2 | 11.3 | 0.00 | 0.00 | 0.00 | 36 | 1008.7 |
| 20260508164516 | 63 | 225 | 3.5 | 11.3 | 0.00 | 0.00 | 0.00 | 32 | 1008.8 |
| 20260508163517 | 63 | 248 | 1.7 | 7.0 | 0.00 | 0.00 | 0.00 | 32 | 1008.9 |
| 20260508162518 | 62 | 203 | 3.5 | 7.8 | 0.00 | 0.00 | 0.00 | 32 | 1009.1 |
| 20260508161517 | 62 | 225 | 4.3 | 9.6 | 0.00 | 0.00 | 0.00 | 37 | 1009.2 |
| 20260508160517 | 61 | 248 | 4.3 | 7.8 | 0.00 | 0.00 | 0.00 | 34 | 1009.4 |
| 20260508155517 | 60 | 203 | 4.3 | 9.6 | 0.00 | 0.00 | 0.00 | 39 | 1009.4 |
| 20260508154517 | 60 | 225 | 4.3 | 8.7 | 0.00 | 0.00 | 0.00 | 37 | 1009.6 |
| 20260508153518 | 60 | 203 | 3.5 | 7.0 | 0.00 | 0.00 | 0.00 | 38 | 1009.8 |
| 20260508152517 | 59 | 225 | 3.5 | 8.7 | 0.00 | 0.00 | 0.00 | 39 | 1009.9 |
| 20260508151517 | 58 | 203 | 3.5 | 7.0 | 0.00 | 0.00 | 0.00 | 39 | 1009.9 |
| 20260508150517 | 57 | 225 | 4.3 | 8.7 | 0.00 | 0.00 | 0.00 | 39 | 1009.8 |
| 20260508145517 | 57 | 225 | 3.5 | 8.7 | 0.00 | 0.00 | 0.00 | 41 | 1009.9 |
| 20260508144517 | 55 | 225 | 3.5 | 7.8 | 0.00 | 0.00 | 0.00 | 45 | 1010.0 |
| 20260508143517 | 54 | 225 | 3.5 | 10.4 | 0.00 | 0.00 | 0.00 | 43 | 1009.8 |
| 20260508142516 | 53 | 225 | 4.3 | 10.4 | 0.00 | 0.00 | 0.00 | 46 | 1009.9 |
| 20260508141517 | 52 | 225 | 4.3 | 10.4 | 0.00 | 0.00 | 0.00 | 46 | 1009.9 |
| 20260508140516 | 51 | 225 | 4.3 | 9.6 | 0.00 | 0.00 | 0.00 | 49 | 1010.0 |
| 20260508135516 | 50 | 225 | 3.5 | 7.0 | 0.00 | 0.00 | 0.00 | 52 | 1010.0 |
| 20260508134516 | 49 | 225 | 3.5 | 6.1 | 0.00 | 0.00 | 0.00 | 51 | 1009.8 |
| 20260508133537 | 49 | 225 | 3.5 | 6.1 | 0.00 | 0.00 | 0.00 | 50 | 1009.9 |
| 20260508132518 | 48 | 225 | 1.7 | 5.2 | 0.00 | 0.00 | 0.00 | 53 | 1009.9 |
| 20260508131516 | 47 | 225 | 2.6 | 7.0 | 0.00 | 0.00 | 0.00 | 53 | 1010.0 |
| 20260508130516 | 46 | 203 | 2.6 | 7.8 | 0.00 | 0.00 | 0.00 | 53 | 1010.0 |
| 20260508125517 | 46 | 203 | 1.7 | 6.1 | 0.00 | 0.00 | 0.00 | 55 | 1010.2 |
| 20260508124537 | 45 | 225 | 1.7 | 6.1 | 0.00 | 0.00 | 0.00 | 56 | 1010.1 |
| 20260508123516 | 44 | 225 | 0.9 | 3.5 | 0.00 | 0.00 | 0.00 | 56 | 1009.9 |
| 20260508122516 | 43 | 203 | 1.7 | 5.2 | 0.00 | 0.00 | 0.00 | 56 | 1009.8 |
| 20260508121516 | 42 | 225 | 1.7 | 3.5 | 0.00 | 0.00 | 0.00 | 57 | 1009.9 |